User: anonymous   Login
Location: Unspecified
(0.0000°N, 0.0000°E)
Time: 09:11:40
(UTC+00:00)
Language:

YAOGAN 12 - Orbit

View from above orbital plane
View from above orbital plane
View from above satellite
View from above satellite

Ground track
Ground track

The orbit data is extracted from the following two-line orbital elements,

1 37875U 11066B   18018.81008348  .00000861  00000-0  37685-4 0  9992
2 37875  97.5223  89.1338 0001097 357.8576 136.3617 15.24796888344860
Epoch (UTC): 18 January 2018 19:26:31
Eccentricity: 0.0001097
inclination: 97.5223°
perigee height: 490 km
apogee height: 492 km
right ascension of ascending node: 89.1338°
argument of perigee: 357.8576°
revolutions per day: 15.24796888
mean anomaly at epoch: 136.3617°
orbit number at epoch: 34486

The dashed part of the orbit path shows where the satellite is in the earth's shadow,  

DLR